Location: Gro� Glienicke
(52.4675°N, 13.1079°E)
Time: 17:34:44
(UTC+00:00)

Cosmos 1943 Rocket - Pass Details

Date: 06 July 2020
Orbit: 811 x 845 km, 71.0° (Epoch: 13 August)

Event Time Altitude Azimuth Distance (km) Brightness Sun altitude
Rises 22:33:02 0° 328° (NNW) 3,417 6.7 -14.5°
Reaches altitude 10° 22:35:30 10° 330° (NNW) 2,478 5.8 -14.5°
Maximum altitude 22:41:13 81° 59° (ENE) 861 2.3 -14.7°
Enters shadow 22:45:32 18° 145° (SE) 1,956 3.6 -14.7°
